PRIVATE WETTERSTATION BILLIGHEIM-ALLFELD                       ZURCK
Wetterdaten: Freitag, 26.12.2014
Datum Zeit Temp. A. Temp. A. min Temp. A. max Feuchte A. Luftdruck Regen Wind Richtung Richtung Sonnenschein ET Solar Taupunkt Windchill Windben Empfang
26.12.2014 00:00 2,6 C 2,6 C 2,6 C 92 % 1027,6 hPa 0,0 l/m 1,6 km/h (1 Bft) W 270 0 min 0,000 mm 0 W/m 1,4 C 2,6 C 6,4 km/h (2 Bft) 87 %
26.12.2014 00:10 2,6 C 2,6 C 2,6 C 92 % 1027,7 hPa 0,0 l/m 0,0 km/h (0 Bft) W-NW 292 0 min 0,000 mm 0 W/m 1,4 C 2,6 C 6,4 km/h (2 Bft) 97 %
26.12.2014 00:20 2,6 C 2,6 C 2,6 C 92 % 1027,6 hPa 0,2 l/m 0,0 km/h (0 Bft) NW 315 0 min 0,000 mm 0 W/m 1,4 C 2,6 C 4,8 km/h (1 Bft) 97 %
26.12.2014 00:30 2,5 C 2,5 C 2,6 C 92 % 1027,6 hPa 0,0 l/m 3,2 km/h (1 Bft) W-NW 292 0 min 0,000 mm 0 W/m 1,3 C 2,5 C 11,3 km/h (2 Bft) 98 %
26.12.2014 00:40 2,4 C 2,4 C 2,5 C 92 % 1027,6 hPa 0,0 l/m 1,6 km/h (1 Bft) W-NW 292 0 min 0,000 mm 0 W/m 1,2 C 2,4 C 6,4 km/h (2 Bft) 97 %
26.12.2014 00:50 2,4 C 2,4 C 2,4 C 92 % 1027,6 hPa 0,0 l/m 1,6 km/h (1 Bft) NW 315 0 min 0,000 mm 0 W/m 1,2 C 2,4 C 9,7 km/h (2 Bft) 97 %
26.12.2014 01:00 2,3 C 2,3 C 2,4 C 92 % 1027,6 hPa 0,0 l/m 3,2 km/h (1 Bft) NW 315 0 min 0,000 mm 0 W/m 1,1 C 2,3 C 8,0 km/h (2 Bft) 96 %
26.12.2014 01:10 2,3 C 2,3 C 2,3 C 92 % 1027,6 hPa 0,0 l/m 3,2 km/h (1 Bft) NW 315 0 min 0,000 mm 0 W/m 1,1 C 2,3 C 9,7 km/h (2 Bft) 97 %
26.12.2014 01:20 2,3 C 2,3 C 2,3 C 92 % 1027,6 hPa 0,0 l/m 1,6 km/h (1 Bft) NW 315 0 min 0,000 mm 0 W/m 1,1 C 2,3 C 8,0 km/h (2 Bft) 98 %
26.12.2014 01:30 2,2 C 2,2 C 2,3 C 92 % 1027,5 hPa 0,0 l/m 3,2 km/h (1 Bft) W-NW 292 0 min 0,000 mm 0 W/m 1,0 C 2,2 C 9,7 km/h (2 Bft) 98 %
26.12.2014 01:40 2,1 C 2,1 C 2,2 C 92 % 1027,7 hPa 0,0 l/m 3,2 km/h (1 Bft) W-NW 292 0 min 0,000 mm 0 W/m 0,9 C 2,1 C 9,7 km/h (2 Bft) 88 %
26.12.2014 01:50 2,1 C 2,1 C 2,1 C 92 % 1027,6 hPa 0,0 l/m 1,6 km/h (1 Bft) W-NW 292 0 min 0,000 mm 0 W/m 0,9 C 2,1 C 8,0 km/h (2 Bft) 97 %
26.12.2014 02:00 2,0 C 2,0 C 2,1 C 92 % 1027,5 hPa 0,0 l/m 1,6 km/h (1 Bft) W-NW 292 0 min 0,000 mm 0 W/m 0,8 C 2,0 C 9,7 km/h (2 Bft) 98 %
26.12.2014 02:10 1,9 C 1,9 C 2,0 C 92 % 1027,7 hPa 0,0 l/m 1,6 km/h (1 Bft) W-NW 292 0 min 0,000 mm 0 W/m 0,7 C 1,9 C 8,0 km/h (2 Bft) 98 %
26.12.2014 02:20 1,7 C 1,7 C 1,9 C 92 % 1027,8 hPa 0,0 l/m 0,0 km/h (0 Bft) NW 315 0 min 0,000 mm 0 W/m 0,5 C 1,7 C 6,4 km/h (2 Bft) 98 %
26.12.2014 02:30 1,5 C 1,5 C 1,7 C 92 % 1028,0 hPa 0,0 l/m 0,0 km/h (0 Bft) NW 315 0 min 0,000 mm 0 W/m 0,3 C 1,5 C 3,2 km/h (1 Bft) 98 %
26.12.2014 02:40 1,4 C 1,4 C 1,5 C 92 % 1028,1 hPa 0,2 l/m 0,0 km/h (0 Bft) NW 315 0 min 0,000 mm 0 W/m 0,2 C 1,4 C 1,6 km/h (1 Bft) 98 %
26.12.2014 02:50 1,4 C 1,4 C 1,4 C 92 % 1028,2 hPa 0,0 l/m 0,0 km/h (0 Bft) N 0 0 min 0,000 mm 0 W/m 0,2 C 1,4 C 0,0 km/h (0 Bft) 98 %
26.12.2014 03:00 1,2 C 1,2 C 1,3 C 92 % 1028,2 hPa 0,0 l/m 0,0 km/h (0 Bft) N 0 0 min 0,000 mm 0 W/m 0,0 C 1,2 C 0,0 km/h (0 Bft) 98 %
26.12.2014 03:10 1,2 C 1,2 C 1,2 C 92 % 1028,2 hPa 0,0 l/m 0,0 km/h (0 Bft) NW 315 0 min 0,000 mm 0 W/m 0,0 C 1,2 C 1,6 km/h (1 Bft) 97 %
26.12.2014 03:20 1,1 C 1,1 C 1,2 C 92 % 1028,2 hPa 0,0 l/m 0,0 km/h (0 Bft) N 0 0 min 0,000 mm 0 W/m -0,1 C 1,1 C 0,0 km/h (0 Bft) 98 %
26.12.2014 03:30 1,0 C 1,0 C 1,1 C 92 % 1028,2 hPa 0,0 l/m 0,0 km/h (0 Bft) N 0 0 min 0,000 mm 0 W/m -0,2 C 1,0 C 0,0 km/h (0 Bft) 96 %
26.12.2014 03:40 1,0 C 1,0 C 1,1 C 92 % 1028,1 hPa 0,0 l/m 0,0 km/h (0 Bft) N 0 0 min 0,000 mm 0 W/m -0,2 C 1,0 C 0,0 km/h (0 Bft) 97 %
26.12.2014 03:50 0,9 C 0,9 C 1,0 C 92 % 1028,3 hPa 0,0 l/m 0,0 km/h (0 Bft) N 0 0 min 0,000 mm 0 W/m -0,2 C 0,9 C 0,0 km/h (0 Bft) 97 %
26.12.2014 04:00 0,8 C 0,8 C 0,9 C 92 % 1028,3 hPa 0,0 l/m 0,0 km/h (0 Bft) N 0 0 min 0,000 mm 0 W/m -0,3 C 0,8 C 0,0 km/h (0 Bft) 98 %
26.12.2014 04:10 0,8 C 0,8 C 0,9 C 92 % 1028,3 hPa 0,0 l/m 0,0 km/h (0 Bft) N 0 0 min 0,000 mm 0 W/m -0,3 C 0,8 C 0,0 km/h (0 Bft) 97 %
26.12.2014 04:20 0,9 C 0,9 C 0,9 C 92 % 1028,2 hPa 0,0 l/m 0,0 km/h (0 Bft) NW 315 0 min 0,000 mm 0 W/m -0,2 C 0,9 C 1,6 km/h (1 Bft) 97 %
26.12.2014 04:30 0,9 C 0,9 C 0,9 C 92 % 1028,1 hPa 0,0 l/m 0,0 km/h (0 Bft) NW 315 0 min 0,000 mm 0 W/m -0,2 C 0,9 C 3,2 km/h (1 Bft) 98 %
26.12.2014 04:40 0,8 C 0,8 C 0,9 C 92 % 1028,1 hPa 0,0 l/m 0,0 km/h (0 Bft) N 0 0 min 0,000 mm 0 W/m -0,3 C 0,8 C 0,0 km/h (0 Bft) 98 %
26.12.2014 04:50 0,7 C 0,7 C 0,8 C 92 % 1028,2 hPa 0,0 l/m 0,0 km/h (0 Bft) NW 315 0 min 0,000 mm 0 W/m -0,4 C 0,7 C 1,6 km/h (1 Bft) 98 %
26.12.2014 05:00 0,6 C 0,6 C 0,7 C 92 % 1028,2 hPa 0,0 l/m 0,0 km/h (0 Bft) NW 315 0 min 0,000 mm 0 W/m -0,5 C 0,6 C 3,2 km/h (1 Bft) 97 %
26.12.2014 05:10 0,4 C 0,4 C 0,6 C 92 % 1028,2 hPa 0,0 l/m 0,0 km/h (0 Bft) NW 315 0 min 0,000 mm 0 W/m -0,7 C 0,4 C 4,8 km/h (1 Bft) 98 %
26.12.2014 05:20 0,4 C 0,4 C 0,4 C 92 % 1028,4 hPa 0,0 l/m 0,0 km/h (0 Bft) N-NO 22 0 min 0,000 mm 0 W/m -0,7 C 0,4 C 3,2 km/h (1 Bft) 97 %
26.12.2014 05:30 0,3 C 0,3 C 0,4 C 92 % 1028,4 hPa 0,0 l/m 1,6 km/h (1 Bft) N 360 0 min 0,000 mm 0 W/m -0,8 C 0,3 C 6,4 km/h (2 Bft) 96 %
26.12.2014 05:40 0,2 C 0,2 C 0,3 C 92 % 1028,5 hPa 0,0 l/m 0,0 km/h (0 Bft) N 360 0 min 0,000 mm 0 W/m -0,9 C 0,2 C 1,6 km/h (1 Bft) 98 %
26.12.2014 05:50 0,2 C 0,2 C 0,2 C 92 % 1028,5 hPa 0,0 l/m 0,0 km/h (0 Bft) N 0 0 min 0,000 mm 0 W/m -0,9 C 0,2 C 0,0 km/h (0 Bft) 97 %
26.12.2014 06:00 0,2 C 0,1 C 0,2 C 92 % 1028,5 hPa 0,0 l/m 0,0 km/h (0 Bft) N 0 0 min 0,000 mm 0 W/m -0,9 C 0,2 C 0,0 km/h (0 Bft) 89 %
26.12.2014 06:10 0,2 C 0,2 C 0,2 C 92 % 1028,7 hPa 0,0 l/m 0,0 km/h (0 Bft) N 360 0 min 0,000 mm 0 W/m -0,9 C 0,2 C 1,6 km/h (1 Bft) 98 %
26.12.2014 06:20 0,1 C 0,1 C 0,2 C 92 % 1028,8 hPa 0,0 l/m 0,0 km/h (0 Bft) N 360 0 min 0,000 mm 0 W/m -1,0 C 0,1 C 3,2 km/h (1 Bft) 97 %
26.12.2014 06:30 0,1 C 0,1 C 0,1 C 92 % 1028,7 hPa 0,0 l/m 0,0 km/h (0 Bft) N 360 0 min 0,000 mm 0 W/m -1,0 C 0,1 C 1,6 km/h (1 Bft) 98 %
26.12.2014 06:40 0,0 C 0,0 C 0,1 C 92 % 1028,7 hPa 0,0 l/m 0,0 km/h (0 Bft) N 0 0 min 0,000 mm 0 W/m -1,1 C 0,0 C 0,0 km/h (0 Bft) 97 %
26.12.2014 06:50 -0,1 C -0,1 C 0,0 C 92 % 1028,7 hPa 0,0 l/m 0,0 km/h (0 Bft) N 360 0 min 0,000 mm 0 W/m -1,2 C -0,1 C 3,2 km/h (1 Bft) 98 %
26.12.2014 07:00 -0,2 C -0,2 C -0,1 C 92 % 1028,6 hPa 0,0 l/m 0,0 km/h (0 Bft) N 360 0 min 0,000 mm 0 W/m -1,3 C -0,2 C 1,6 km/h (1 Bft) 98 %
26.12.2014 07:10 -0,2 C -0,2 C -0,2 C 92 % 1028,8 hPa 0,0 l/m 0,0 km/h (0 Bft) N 360 0 min 0,000 mm 0 W/m -1,3 C -0,2 C 3,2 km/h (1 Bft) 98 %
26.12.2014 07:20 -0,2 C -0,2 C -0,2 C 92 % 1028,9 hPa 0,0 l/m 0,0 km/h (0 Bft) N 0 0 min 0,000 mm 0 W/m -1,3 C -0,2 C 0,0 km/h (0 Bft) 88 %
26.12.2014 07:30 -0,3 C -0,3 C -0,2 C 92 % 1028,9 hPa 0,0 l/m 0,0 km/h (0 Bft) N 360 0 min 0,000 mm 0 W/m -1,4 C -0,3 C 1,6 km/h (1 Bft) 98 %
26.12.2014 07:40 -0,2 C -0,3 C -0,2 C 92 % 1028,9 hPa 0,0 l/m 0,0 km/h (0 Bft) N 0 0 min 0,000 mm 0 W/m -1,3 C -0,2 C 0,0 km/h (0 Bft) 98 %
26.12.2014 07:50 -0,2 C -0,2 C -0,2 C 92 % 1029,0 hPa 0,0 l/m 0,0 km/h (0 Bft) N 0 0 min 0,000 mm 0 W/m -1,3 C -0,2 C 0,0 km/h (0 Bft) 97 %
26.12.2014 08:00 -0,1 C -0,2 C -0,1 C 92 % 1029,2 hPa 0,0 l/m 0,0 km/h (0 Bft) N 0 0 min 0,000 mm 0 W/m -1,2 C -0,1 C 0,0 km/h (0 Bft) 98 %
26.12.2014 08:10 -0,1 C -0,1 C -0,1 C 92 % 1029,2 hPa 0,0 l/m 1,6 km/h (1 Bft) N-NW 337 0 min 0,000 mm 0 W/m -1,2 C -0,1 C 4,8 km/h (1 Bft) 97 %
26.12.2014 08:20 0,0 C -0,1 C 0,0 C 92 % 1029,2 hPa 0,0 l/m 0,0 km/h (0 Bft) NW 315 0 min 0,000 mm 0 W/m -1,1 C 0,0 C 4,8 km/h (1 Bft) 97 %
26.12.2014 08:30 0,1 C 0,0 C 0,1 C 92 % 1029,3 hPa 0,0 l/m 0,0 km/h (0 Bft) NW 315 0 min 0,000 mm 5 W/m -1,0 C 0,1 C 4,8 km/h (1 Bft) 98 %
26.12.2014 08:40 0,2 C 0,1 C 0,2 C 92 % 1029,3 hPa 0,0 l/m 0,0 km/h (0 Bft) N 0 0 min 0,000 mm 12 W/m -0,9 C 0,2 C 0,0 km/h (0 Bft) 89 %
26.12.2014 08:50 0,2 C 0,2 C 0,3 C 92 % 1029,2 hPa 0,0 l/m 0,0 km/h (0 Bft) NW 315 0 min 0,000 mm 14 W/m -0,9 C 0,2 C 1,6 km/h (1 Bft) 98 %
26.12.2014 09:00 0,4 C 0,3 C 0,4 C 92 % 1029,3 hPa 0,0 l/m 0,0 km/h (0 Bft) NW 315 0 min 0,000 mm 16 W/m -0,7 C 0,4 C 4,8 km/h (1 Bft) 97 %
26.12.2014 09:10 0,6 C 0,4 C 0,6 C 92 % 1029,2 hPa 0,0 l/m 0,0 km/h (0 Bft) NW 315 0 min 0,000 mm 18 W/m -0,5 C 0,6 C 1,6 km/h (1 Bft) 98 %
26.12.2014 09:20 0,7 C 0,6 C 0,7 C 92 % 1029,3 hPa 0,0 l/m 0,0 km/h (0 Bft) NW 315 0 min 0,000 mm 23 W/m -0,4 C 0,7 C 1,6 km/h (1 Bft) 97 %
26.12.2014 09:30 0,7 C 0,7 C 0,7 C 92 % 1029,4 hPa 0,0 l/m 0,0 km/h (0 Bft) NW 315 0 min 0,000 mm 26 W/m -0,4 C 0,7 C 3,2 km/h (1 Bft) 98 %
26.12.2014 09:40 0,8 C 0,7 C 0,8 C 92 % 1029,3 hPa 0,0 l/m 0,0 km/h (0 Bft) N 0 0 min 0,000 mm 39 W/m -0,3 C 0,8 C 0,0 km/h (0 Bft) 97 %
26.12.2014 09:50 1,0 C 0,8 C 1,0 C 92 % 1029,4 hPa 0,0 l/m 0,0 km/h (0 Bft) NW 315 0 min 0,000 mm 54 W/m -0,2 C 1,0 C 3,2 km/h (1 Bft) 97 %
26.12.2014 10:00 1,1 C 1,0 C 1,1 C 92 % 1029,4 hPa 0,0 l/m 0,0 km/h (0 Bft) NW 315 0 min 0,000 mm 56 W/m -0,1 C 1,1 C 1,6 km/h (1 Bft) 98 %
26.12.2014 10:10 1,2 C 1,1 C 1,2 C 92 % 1029,5 hPa 0,0 l/m 0,0 km/h (0 Bft) NW 315 0 min 0,000 mm 90 W/m 0,0 C 1,2 C 6,4 km/h (2 Bft) 97 %
26.12.2014 10:20 1,6 C 1,2 C 1,6 C 92 % 1029,5 hPa 0,0 l/m 0,0 km/h (0 Bft) NW 315 10 min 0,000 mm 174 W/m 0,4 C 1,6 C 3,2 km/h (1 Bft) 98 %
26.12.2014 10:30 2,5 C 1,7 C 2,5 C 92 % 1029,5 hPa 0,0 l/m 0,0 km/h (0 Bft) W-NW 292 10 min 0,000 mm 272 W/m 1,3 C 2,5 C 3,2 km/h (1 Bft) 96 %
26.12.2014 10:40 2,9 C 2,5 C 2,9 C 92 % 1029,5 hPa 0,0 l/m 1,6 km/h (1 Bft) W 270 10 min 0,000 mm 257 W/m 1,7 C 2,9 C 4,8 km/h (1 Bft) 98 %
26.12.2014 10:50 2,8 C 2,8 C 2,9 C 91 % 1029,4 hPa 0,0 l/m 3,2 km/h (1 Bft) W-NW 292 10 min 0,000 mm 190 W/m 1,5 C 2,8 C 9,7 km/h (2 Bft) 98 %
26.12.2014 11:00 2,7 C 2,7 C 2,8 C 91 % 1029,4 hPa 0,0 l/m 3,2 km/h (1 Bft) W-NW 292 0 min 0,051 mm 120 W/m 1,4 C 2,7 C 14,5 km/h (3 Bft) 97 %
26.12.2014 11:10 2,5 C 2,5 C 2,8 C 91 % 1029,5 hPa 0,0 l/m 2,9 km/h (1 Bft) NW 317 0 min 0,000 mm 33 W/m 1,2 C 2,5 C 9,7 km/h (2 Bft) 100 %
26.12.2014 11:20 2,3 C 2,3 C 2,5 C 91 % 1029,3 hPa 0,0 l/m 2,2 km/h (1 Bft) W-NW 300 0 min 0,000 mm 44 W/m 1,0 C 2,3 C 9,7 km/h (2 Bft) 92 %
26.12.2014 11:30 2,2 C 2,2 C 2,3 C 91 % 1029,2 hPa 0,0 l/m 3,4 km/h (1 Bft) NW 305 0 min 0,000 mm 46 W/m 0,9 C 2,2 C 9,7 km/h (2 Bft) 100 %
26.12.2014 11:40 2,2 C 2,2 C 2,2 C 91 % 1029,1 hPa 0,0 l/m 2,4 km/h (1 Bft) W-SW 253 0 min 0,000 mm 49 W/m 0,9 C 2,2 C 11,3 km/h (2 Bft) 100 %
26.12.2014 11:50 2,2 C 2,2 C 2,2 C 91 % 1029,1 hPa 0,0 l/m 3,2 km/h (1 Bft) W-NW 290 0 min 0,000 mm 97 W/m 0,9 C 2,2 C 9,7 km/h (2 Bft) 100 %
26.12.2014 12:00 2,3 C 2,2 C 2,3 C 91 % 1029,1 hPa 0,0 l/m 2,9 km/h (1 Bft) W 272 0 min 0,025 mm 81 W/m 1,0 C 2,3 C 9,7 km/h (2 Bft) 100 %
26.12.2014 12:10 2,4 C 2,3 C 2,4 C 91 % 1029,0 hPa 0,0 l/m 2,6 km/h (1 Bft) W 280 0 min 0,000 mm 132 W/m 1,1 C 2,4 C 9,7 km/h (2 Bft) 100 %
26.12.2014 12:20 2,5 C 2,4 C 2,5 C 91 % 1029,1 hPa 0,0 l/m 6,5 km/h (2 Bft) W 269 0 min 0,000 mm 127 W/m 1,2 C 2,4 C 17,7 km/h (3 Bft) 100 %
26.12.2014 12:30 2,6 C 2,5 C 2,6 C 90 % 1029,0 hPa 0,0 l/m 6,2 km/h (2 Bft) W-SW 254 0 min 0,000 mm 90 W/m 1,1 C 2,6 C 14,5 km/h (3 Bft) 99 %
26.12.2014 12:40 2,6 C 2,6 C 2,6 C 90 % 1028,8 hPa 0,0 l/m 7,1 km/h (2 Bft) NW 315 0 min 0,000 mm 102 W/m 1,1 C 1,9 C 17,7 km/h (3 Bft) 99 %
26.12.2014 12:50 2,8 C 2,6 C 2,8 C 90 % 1028,6 hPa 0,0 l/m 5,4 km/h (1 Bft) W-NW 290 0 min 0,000 mm 123 W/m 1,3 C 2,8 C 14,5 km/h (3 Bft) 99 %
26.12.2014 13:00 2,9 C 2,8 C 2,9 C 90 % 1028,6 hPa 0,0 l/m 4,5 km/h (1 Bft) W-SW 254 0 min 0,000 mm 40 W/m 1,4 C 2,9 C 11,3 km/h (2 Bft) 99 %
26.12.2014 13:10 2,6 C 2,6 C 2,9 C 89 % 1028,6 hPa 0,0 l/m 6,7 km/h (2 Bft) W-NW 290 0 min 0,051 mm 44 W/m 1,0 C 2,3 C 17,7 km/h (3 Bft) 100 %
26.12.2014 13:20 2,4 C 2,4 C 2,6 C 90 % 1028,5 hPa 0,0 l/m 3,2 km/h (1 Bft) NW 307 0 min 0,000 mm 63 W/m 0,9 C 2,4 C 11,3 km/h (2 Bft) 99 %
26.12.2014 13:30 2,2 C 2,2 C 2,4 C 91 % 1028,5 hPa 0,0 l/m 2,7 km/h (1 Bft) NW 306 0 min 0,000 mm 90 W/m 0,9 C 2,2 C 9,7 km/h (2 Bft) 100 %
26.12.2014 13:40 2,2 C 2,2 C 2,2 C 92 % 1028,4 hPa 0,0 l/m 2,5 km/h (1 Bft) NW 321 0 min 0,000 mm 105 W/m 1,0 C 2,2 C 9,7 km/h (2 Bft) 100 %
26.12.2014 13:50 2,3 C 2,2 C 2,3 C 92 % 1028,2 hPa 0,0 l/m 3,8 km/h (1 Bft) NW 304 0 min 0,000 mm 102 W/m 1,1 C 2,3 C 11,3 km/h (2 Bft) 99 %
26.12.2014 14:00 2,5 C 2,3 C 2,5 C 92 % 1028,2 hPa 0,0 l/m 4,3 km/h (1 Bft) NW 307 0 min 0,025 mm 104 W/m 1,3 C 2,5 C 9,7 km/h (2 Bft) 100 %
26.12.2014 14:10 2,7 C 2,5 C 2,7 C 92 % 1028,2 hPa 0,0 l/m 3,1 km/h (1 Bft) NW 309 0 min 0,000 mm 107 W/m 1,5 C 2,7 C 8,0 km/h (2 Bft) 100 %
26.12.2014 14:20 2,8 C 2,7 C 2,8 C 92 % 1028,1 hPa 0,0 l/m 1,0 km/h (0 Bft) NW 305 0 min 0,000 mm 62 W/m 1,6 C 2,8 C 8,0 km/h (2 Bft) 100 %
26.12.2014 14:30 3,0 C 2,8 C 3,0 C 91 % 1028,1 hPa 0,0 l/m 2,6 km/h (1 Bft) W 270 0 min 0,000 mm 69 W/m 1,7 C 3,0 C 8,0 km/h (2 Bft) 99 %
26.12.2014 14:40 3,0 C 2,9 C 3,0 C 91 % 1028,1 hPa 0,0 l/m 4,6 km/h (1 Bft) W-NW 296 0 min 0,000 mm 100 W/m 1,7 C 3,0 C 12,9 km/h (3 Bft) 99 %
26.12.2014 14:50 2,9 C 2,9 C 3,0 C 91 % 1028,1 hPa 0,0 l/m 4,2 km/h (1 Bft) NW 317 0 min 0,000 mm 83 W/m 1,6 C 2,9 C 14,5 km/h (3 Bft) 99 %
26.12.2014 15:00 2,9 C 2,9 C 2,9 C 91 % 1028,1 hPa 0,0 l/m 2,1 km/h (1 Bft) W-NW 295 0 min 0,026 mm 54 W/m 1,6 C 2,9 C 9,7 km/h (2 Bft) 98 %
26.12.2014 15:10 2,9 C 2,9 C 2,9 C 91 % 1028,2 hPa 0,0 l/m 4,4 km/h (1 Bft) W-NW 300 0 min 0,000 mm 32 W/m 1,6 C 2,9 C 9,7 km/h (2 Bft) 98 %
26.12.2014 15:20 2,9 C 2,9 C 2,9 C 91 % 1028,1 hPa 0,0 l/m 2,2 km/h (1 Bft) NW 326 0 min 0,000 mm 30 W/m 1,6 C 2,9 C 9,7 km/h (2 Bft) 98 %
26.12.2014 15:30 3,0 C 2,9 C 3,0 C 90 % 1028,2 hPa 0,0 l/m 2,2 km/h (1 Bft) N-NW 337 0 min 0,000 mm 33 W/m 1,5 C 3,0 C 8,0 km/h (2 Bft) 97 %
26.12.2014 15:40 2,9 C 2,9 C 3,0 C 89 % 1028,1 hPa 0,0 l/m 1,8 km/h (1 Bft) NW 317 0 min 0,000 mm 21 W/m 1,3 C 2,9 C 8,0 km/h (2 Bft) 90 %
26.12.2014 15:50 2,9 C 2,9 C 2,9 C 88 % 1028,0 hPa 0,0 l/m 0,2 km/h (0 Bft) NW 314 0 min 0,000 mm 16 W/m 1,1 C 2,9 C 4,8 km/h (1 Bft) 99 %
26.12.2014 16:00 2,9 C 2,9 C 2,9 C 88 % 1028,1 hPa 0,0 l/m 0,3 km/h (0 Bft) NW 314 0 min 0,000 mm 12 W/m 1,1 C 2,9 C 4,8 km/h (1 Bft) 99 %
26.12.2014 16:10 2,8 C 2,8 C 2,9 C 88 % 1028,0 hPa 0,0 l/m 0,0 km/h (0 Bft) NW 314 0 min 0,000 mm 7 W/m 1,0 C 2,8 C 0,0 km/h (0 Bft) 99 %
26.12.2014 16:20 2,7 C 2,7 C 2,8 C 88 % 1027,9 hPa 0,0 l/m 0,0 km/h (0 Bft) NW 314 0 min 0,000 mm 0 W/m 0,9 C 2,7 C 0,0 km/h (0 Bft) 99 %
26.12.2014 16:30 2,4 C 2,4 C 2,7 C 88 % 1027,8 hPa 0,0 l/m 0,0 km/h (0 Bft) NW 314 0 min 0,000 mm 0 W/m 0,6 C 2,4 C 0,0 km/h (0 Bft) 90 %
26.12.2014 16:40 2,1 C 2,1 C 2,4 C 89 % 1027,7 hPa 0,0 l/m 0,0 km/h (0 Bft) NW 314 0 min 0,000 mm 0 W/m 0,5 C 2,1 C 1,6 km/h (1 Bft) 100 %
26.12.2014 16:50 1,7 C 1,7 C 2,1 C 90 % 1027,7 hPa 0,0 l/m 0,0 km/h (0 Bft) NW 314 0 min 0,000 mm 0 W/m 0,2 C 1,7 C 0,0 km/h (0 Bft) 100 %
26.12.2014 17:00 1,4 C 1,4 C 1,7 C 91 % 1027,6 hPa 0,0 l/m 0,0 km/h (0 Bft) NW 314 0 min 0,000 mm 0 W/m 0,1 C 1,4 C 0,0 km/h (0 Bft) 99 %
26.12.2014 17:10 1,4 C 1,4 C 1,4 C 91 % 1027,6 hPa 0,0 l/m 0,0 km/h (0 Bft) NW 314 0 min 0,000 mm 0 W/m 0,1 C 1,4 C 0,0 km/h (0 Bft) 100 %
26.12.2014 17:20 1,4 C 1,4 C 1,4 C 92 % 1027,5 hPa 0,0 l/m 0,0 km/h (0 Bft) NW 314 0 min 0,000 mm 0 W/m 0,2 C 1,4 C 0,0 km/h (0 Bft) 100 %
26.12.2014 17:30 1,7 C 1,4 C 1,7 C 92 % 1027,6 hPa 0,0 l/m 0,0 km/h (0 Bft) NW 314 0 min 0,000 mm 0 W/m 0,5 C 1,7 C 1,6 km/h (1 Bft) 100 %
26.12.2014 17:40 1,8 C 1,7 C 1,8 C 91 % 1027,5 hPa 0,0 l/m 0,5 km/h (0 Bft) NW 310 0 min 0,000 mm 0 W/m 0,5 C 1,8 C 3,2 km/h (1 Bft) 100 %
26.12.2014 17:50 1,8 C 1,8 C 1,8 C 91 % 1027,5 hPa 0,0 l/m 1,0 km/h (0 Bft) NW 309 0 min 0,000 mm 0 W/m 0,5 C 1,8 C 4,8 km/h (1 Bft) 100 %
26.12.2014 18:00 1,7 C 1,7 C 1,8 C 91 % 1027,4 hPa 0,0 l/m 0,0 km/h (0 Bft) NW 309 0 min 0,000 mm 0 W/m 0,4 C 1,7 C 1,6 km/h (1 Bft) 100 %
26.12.2014 18:10 1,6 C 1,6 C 1,7 C 91 % 1027,4 hPa 0,0 l/m 0,0 km/h (0 Bft) NW 309 0 min 0,000 mm 0 W/m 0,3 C 1,6 C 1,6 km/h (1 Bft) 100 %
26.12.2014 18:20 1,4 C 1,4 C 1,6 C 91 % 1027,2 hPa 0,0 l/m 0,0 km/h (0 Bft) NW 309 0 min 0,000 mm 0 W/m 0,1 C 1,4 C 0,0 km/h (0 Bft) 100 %
26.12.2014 18:30 1,4 C 1,4 C 1,4 C 91 % 1027,2 hPa 0,0 l/m 0,2 km/h (0 Bft) NW 309 0 min 0,000 mm 0 W/m 0,1 C 1,4 C 3,2 km/h (1 Bft) 100 %
26.12.2014 18:40 1,4 C 1,4 C 1,4 C 91 % 1027,1 hPa 0,0 l/m 0,0 km/h (0 Bft) NW 309 0 min 0,000 mm 0 W/m 0,1 C 1,4 C 0,0 km/h (0 Bft) 100 %
26.12.2014 18:50 1,5 C 1,4 C 1,5 C 91 % 1027,0 hPa 0,0 l/m 0,0 km/h (0 Bft) NW 309 0 min 0,000 mm 0 W/m 0,2 C 1,5 C 0,0 km/h (0 Bft) 91 %
26.12.2014 19:00 1,7 C 1,5 C 1,7 C 91 % 1027,1 hPa 0,0 l/m 0,0 km/h (0 Bft) NW 309 0 min 0,000 mm 0 W/m 0,4 C 1,7 C 0,0 km/h (0 Bft) 100 %
26.12.2014 19:10 1,7 C 1,7 C 1,7 C 91 % 1027,1 hPa 0,0 l/m 0,0 km/h (0 Bft) NW 309 0 min 0,000 mm 0 W/m 0,4 C 1,7 C 1,6 km/h (1 Bft) 100 %
26.12.2014 19:20 1,4 C 1,4 C 1,7 C 91 % 1027,0 hPa 0,0 l/m 0,1 km/h (0 Bft) NW 309 0 min 0,000 mm 0 W/m 0,1 C 1,4 C 1,6 km/h (1 Bft) 100 %
26.12.2014 19:30 1,3 C 1,3 C 1,4 C 91 % 1026,9 hPa 0,0 l/m 0,4 km/h (0 Bft) NW 309 0 min 0,000 mm 0 W/m -0,0 C 1,3 C 3,2 km/h (1 Bft) 100 %
26.12.2014 19:40 0,9 C 0,9 C 1,3 C 92 % 1026,7 hPa 0,0 l/m 0,2 km/h (0 Bft) NW 309 0 min 0,000 mm 0 W/m -0,2 C 0,9 C 1,6 km/h (1 Bft) 100 %
26.12.2014 19:50 0,7 C 0,7 C 0,9 C 92 % 1026,5 hPa 0,0 l/m 0,3 km/h (0 Bft) NW 309 0 min 0,000 mm 0 W/m -0,4 C 0,7 C 3,2 km/h (1 Bft) 100 %
26.12.2014 20:00 0,6 C 0,6 C 0,7 C 92 % 1026,5 hPa 0,2 l/m 0,7 km/h (0 Bft) SW 220 0 min 0,000 mm 0 W/m -0,5 C 0,6 C 3,2 km/h (1 Bft) 100 %
26.12.2014 20:10 0,5 C 0,5 C 0,6 C 92 % 1026,3 hPa 0,0 l/m 2,4 km/h (1 Bft) S-SO 155 0 min 0,000 mm 0 W/m -0,6 C 0,5 C 4,8 km/h (1 Bft) 100 %
26.12.2014 20:20 0,4 C 0,4 C 0,5 C 92 % 1026,1 hPa 0,0 l/m 1,5 km/h (1 Bft) S-SO 150 0 min 0,000 mm 0 W/m -0,7 C 0,4 C 4,8 km/h (1 Bft) 100 %
26.12.2014 20:30 0,4 C 0,4 C 0,4 C 92 % 1026,1 hPa 0,0 l/m 0,0 km/h (0 Bft) S-SO 150 0 min 0,000 mm 0 W/m -0,7 C 0,4 C 0,0 km/h (0 Bft) 100 %
26.12.2014 20:40 0,6 C 0,4 C 0,6 C 92 % 1026,0 hPa 0,0 l/m 0,0 km/h (0 Bft) S-SO 150 0 min 0,000 mm 0 W/m -0,5 C 0,6 C 0,0 km/h (0 Bft) 98 %
26.12.2014 20:50 0,6 C 0,6 C 0,6 C 92 % 1026,0 hPa 0,0 l/m 0,0 km/h (0 Bft) S-SO 150 0 min 0,000 mm 0 W/m -0,5 C 0,6 C 0,0 km/h (0 Bft) 99 %
26.12.2014 21:00 0,4 C 0,4 C 0,6 C 92 % 1025,9 hPa 0,0 l/m 1,2 km/h (1 Bft) S-SW 198 0 min 0,000 mm 0 W/m -0,7 C 0,4 C 6,4 km/h (2 Bft) 99 %
26.12.2014 21:10 0,2 C 0,2 C 0,6 C 92 % 1025,7 hPa 0,0 l/m 0,4 km/h (0 Bft) S 184 0 min 0,000 mm 0 W/m -0,9 C 0,2 C 3,2 km/h (1 Bft) 100 %
26.12.2014 21:20 0,1 C 0,1 C 0,6 C 92 % 1025,6 hPa 0,0 l/m 0,5 km/h (0 Bft) S 184 0 min 0,000 mm 0 W/m -1,0 C 0,1 C 3,2 km/h (1 Bft) 100 %
26.12.2014 21:30 0,0 C 0,0 C 0,1 C 92 % 1025,5 hPa 0,0 l/m 0,0 km/h (0 Bft) S 184 0 min 0,000 mm 0 W/m -1,1 C 0,0 C 1,6 km/h (1 Bft) 100 %
26.12.2014 21:40 -0,1 C -0,1 C 0,1 C 92 % 1025,3 hPa 0,0 l/m 3,2 km/h (1 Bft) S 180 0 min 0,000 mm 0 W/m -1,2 C -0,1 C 4,8 km/h (1 Bft) 99 %
26.12.2014 21:50 -0,2 C -0,2 C -0,1 C 92 % 1025,1 hPa 0,0 l/m 1,6 km/h (1 Bft) S-SO 157 0 min 0,000 mm 0 W/m -1,3 C -0,2 C 6,4 km/h (2 Bft) 100 %
26.12.2014 22:00 -0,3 C -0,3 C -0,2 C 92 % 1024,9 hPa 0,0 l/m 0,0 km/h (0 Bft) N 0 0 min 0,000 mm 0 W/m -1,4 C -0,3 C 0,0 km/h (0 Bft) 100 %
26.12.2014 22:10 -0,4 C -0,4 C -0,3 C 92 % 1024,7 hPa 0,0 l/m 1,6 km/h (1 Bft) S-SO 157 0 min 0,000 mm 0 W/m -1,5 C -0,4 C 4,8 km/h (1 Bft) 100 %
26.12.2014 22:20 -0,5 C -0,5 C -0,4 C 92 % 1024,4 hPa 0,0 l/m 0,0 km/h (0 Bft) S-SO 157 0 min 0,000 mm 0 W/m -1,6 C -0,5 C 3,2 km/h (1 Bft) 100 %
26.12.2014 22:30 -0,4 C -0,5 C -0,4 C 92 % 1024,2 hPa 0,0 l/m 0,0 km/h (0 Bft) S-SO 157 0 min 0,000 mm 0 W/m -1,5 C -0,4 C 3,2 km/h (1 Bft) 100 %
26.12.2014 22:40 -0,4 C -0,4 C -0,4 C 91 % 1023,9 hPa 0,0 l/m 0,0 km/h (0 Bft) S-SO 157 0 min 0,000 mm 0 W/m -1,7 C -0,4 C 3,2 km/h (1 Bft) 98 %
26.12.2014 22:50 -0,3 C -0,4 C -0,3 C 92 % 1023,6 hPa 0,0 l/m 0,0 km/h (0 Bft) N 0 0 min 0,000 mm 0 W/m -1,4 C -0,3 C 0,0 km/h (0 Bft) 99 %
26.12.2014 23:00 -0,3 C -0,3 C -0,3 C 92 % 1023,4 hPa 0,0 l/m 0,0 km/h (0 Bft) S-SO 157 0 min 0,000 mm 0 W/m -1,4 C -0,3 C 1,6 km/h (1 Bft) 98 %
26.12.2014 23:10 -0,1 C -0,3 C -0,1 C 91 % 1023,2 hPa 0,0 l/m 0,0 km/h (0 Bft) N 0 0 min 0,000 mm 0 W/m -1,4 C -0,1 C 0,0 km/h (0 Bft) 98 %
26.12.2014 23:20 0,0 C -0,1 C 0,0 C 91 % 1023,1 hPa 0,0 l/m 0,0 km/h (0 Bft) N 0 0 min 0,000 mm 0 W/m -1,3 C 0,0 C 0,0 km/h (0 Bft) 98 %
26.12.2014 23:30 0,2 C 0,0 C 0,2 C 92 % 1022,9 hPa 0,0 l/m 0,0 km/h (0 Bft) S-SO 157 0 min 0,000 mm 0 W/m -0,9 C 0,2 C 1,6 km/h (1 Bft) 99 %
26.12.2014 23:40 0,2 C 0,2 C 0,2 C 92 % 1022,8 hPa 0,0 l/m 1,6 km/h (1 Bft) S 180 0 min 0,000 mm 0 W/m -0,9 C 0,2 C 3,2 km/h (1 Bft) 99 %
26.12.2014 23:50 0,2 C 0,2 C 0,2 C 92 % 1022,7 hPa 0,0 l/m 0,0 km/h (0 Bft) N 0 0 min 0,000 mm 0 W/m -0,9 C 0,2 C 0,0 km/h (0 Bft) 98 %
_ Min-Zeit 22:20 22:20 22:20 15:50 23:50 - 00:10 - - - - - 22:40 22:20 02:50 00:00
Minimum _ -0,5 C -0,5 C -0,4 C 88 % 1022,7 hPa - 0,0 km/h (0 Bft) - - - - - -1,7 C -0,5 C 0,0 km/h (0 Bft) 87 %
_ Max-Zeit 14:30 14:40 14:30 00:00 10:10 00:20 12:40 - - 10:20 11:00 10:30 10:40 14:30 12:20 11:10
Maximum _ 3,0 C 2,9 C 3,0 C 92 % 1029,5 hPa 0,2 l/m 7,1 km/h
NW (2 Bft)
- - 10 min 0,051 mm 272 W/m 1,7 C 3,0 C 17,7 km/h
W (3 Bft)
100 %
Durchschnitt _ 1,3 C 1,3 C 1,4 C 91 % 1027,7 hPa #0,6 l/m 1,1 km/h (1 Bft) W-NW - #40 min. #0,178 mm 74 W/m 0,1 C 1,3 C 4,5 km/h (1 Bft) 98 %
PRIVATE WETTERSTATION BILLIGHEIM-ALLFELD - www.neckar-odenwald-wetter.de - Holger Sonntag